Regional Weather Roundup
Issued by NWS

Home | Current Version | Previous Version | Text Only | Print | Product List | Glossary Off
Versions: 1 2 3 4 5 6 7 8 9 10 11 12 13 14 15 16 17 18 19 20 21 22 23 24 25 26 27 28 29 30 31 32 33 34 35 36 37 38 39 40 41 42 43 44 45 46 47 48 49 50

699
ASUS43 KMKX 240800
RWRWI

WISCONSIN REGIONAL WEATHER ROUNDUP
NATIONAL WEATHER SERVICE MILWAUKEE/SULLIVAN WI
300 AM CDT FRI MAR 24 2017

NOTE: "FAIR" INDICATES FEW OR NO CLOUDS BELOW 12,000 FEET WITH NO
SIGNIFICANT WEATHER AND/OR OBSTRUCTIONS TO VISIBILITY.

WIZ001-002-006>008-014>016-023>028-240900-
NORTHWEST WISCONSIN

CITY           SKY/WX    TMP DP  RH WIND       PRES   REMARKS
SUPERIOR ARPT  MIX PCPN  32  32 100 CALM      29.94R
ASHLAND        FOG       32  32 100 CALM      29.93R VSB 1/2
HAYWARD        CLOUDY    35  31  85 NE3       29.88F FOG
SIREN          CLOUDY    34  33  97 CALM      29.89R FOG
CUMBERLAND     CLOUDY    34  32  93 NE3       29.85F FOG
RICE LAKE      CLOUDY    36  36  99 CALM      29.87F FOG
CHETEK         DRIZZLE   36  36 100 E3        29.85F
LADYSMITH      CLOUDY    35  35  97 E3        29.88F FOG
EAU CLAIRE     NOT AVBL
MENOMONIE      CLOUDY    38  37  95 CALM      29.86F FOG
NEW RICHMOND   CLOUDY    37  37 100 E3        29.84F FOG
OSCEOLA        CLOUDY    37  37 100 NE3       29.87F FOG
$$

WIZ003>005-009-010-017-018-240900-
NORTH CENTRAL WISCONSIN

CITY           SKY/WX    TMP DP  RH WIND       PRES   REMARKS
MANITOWISH WTR LGT RAIN  32  32 100 CALM      29.87F
ARBOR VITAE    CLOUDY    34  32  92 CALM      29.87F FOG
WOODRUFF       CLOUDY    34  32  92 CALM      29.87F FOG
RHINELANDER    CLOUDY    33  31  92 CALM      29.86F FOG
EAGLE RIVER    MIX PCPN  32  31  96 CALM      29.88S
LAND O LAKES   MIX PCPN  32  32  99 CALM      29.90S
PHILLIPS       CLOUDY    34  32  94 CALM      29.86F
TOMAHAWK       CLOUDY    32  31  95 CALM      29.87F FOG
MEDFORD        DRIZZLE   34  33  98 SE3       29.86F
MERRILL        RAIN      33  33 100 CALM      29.88F
$$

WIZ029-030-035-036-043>047-240900-
CENTRAL WISCONSIN

CITY           SKY/WX    TMP DP  RH WIND       PRES   REMARKS
WAUSAU         LGT RAIN  34  34 100 E5        29.86F FOG     WCI  30
MOSINEE        LGT RAIN  34  34 100 CALM      29.89S
MARSHFIELD     CLOUDY    36  33  89 NE6       29.85F WCI  31
STEVENS POINT  DRIZZLE   35  35 100 NE3       29.89F
WAUPACA        CLOUDY    38  34  87 CALM      29.90F
WAUTOMA        LGT RAIN  39  37  92 NE6       29.87F WCI  35
WISC RAPIDS    LGT RAIN  39  36  89 NE3       29.87F
CAMP DOUGLAS   NOT AVBL
$$

WIZ011>013-019>022-031-037>040-048>050-240900-
NORTHEAST WISCONSIN

CITY           SKY/WX    TMP DP  RH WIND       PRES   REMARKS
ANTIGO         MIX PCPN  32  32  99 CALM      29.88F
SHAWANO        DRIZZLE   36  32  85 NE3       29.92S
OCONTO         CLOUDY    35  32  88 CALM      29.93R
STURGEON BAY   CLOUDY    37  34  89 SE5       29.93F WCI  33
GREEN BAY      RAIN      37  35  92 N5        29.91F FOG     WCI  33
MANITOWOC      NOT AVBL
APPLETON       LGT RAIN  39  34  81 W3        29.89F
CLINTONVILLE   LGT SNOW  36  32  87 CALM      29.91R
OSHKOSH        CLOUDY    38  35  89 CALM      29.88F
$$

WIZ032>034-041-042-053>061-240900-
SOUTHWEST WISCONSIN

CITY           SKY/WX    TMP DP  RH WIND       PRES   REMARKS
LA CROSSE      LGT RAIN  41  39  93 N7        29.85R
SPARTA         LGT RAIN  39  38  94 CALM      29.85F
VIROQUA        CLOUDY    40  37  90 S13G18    29.81F WCI  33
BOSCOBEL       CLOUDY    44  37  76 CALM      29.85F
PRAIRIE DU CHI CLOUDY    42  35  76 E6        29.84F
PLATTEVILLE    CLOUDY    43  38  83 SE9       29.86F
$$

WIZ056-057-062-063-064-067-068-240900-
SOUTH CENTRAL WISCONSIN

CITY           SKY/WX    TMP DP  RH WIND       PRES   REMARKS
REEDSBURG      CLOUDY    42  37  82 S5        29.84F
BARABOO/DELLS  CLOUDY    44  36  73 S16G22    29.84F
LONE ROCK      NOT AVBL
MINERAL POINT  CLOUDY    43  39  87 SE12      29.85F
MADISON        CLOUDY    44  36  73 S9        29.86F
MIDDLETON      CLOUDY    44  36  74 SW8       29.88F
WATERTOWN      CLOUDY    44  37  77 S9G16     29.88F
MONROE         CLOUDY    45  37  76 S14G21    29.89S
JANESVILLE     CLOUDY    46  36  66 S9        29.90F
$$

WIZ051-052-058>065-066-070>072-240900-
SOUTHEAST WISCONSIN

CITY           SKY/WX    TMP DP  RH WIND       PRES   REMARKS
MILWAUKEE      CLOUDY    48  36  63 SW10      29.90F
WAUKESHA       PTCLDY    45  34  65 S9        29.92F
MILWAUKEE/TIMM CLOUDY    45  32  61 SW3       29.92S
RACINE         CLOUDY    48  36  63 SW14G22   29.92S
KENOSHA        PTCLDY    48  36  63 SW15      29.91S
FOND DU LAC    MOCLDY    39  35  86 CALM      29.88F
SHEBOYGAN      MOCLDY    36  34  92 SE5       29.89F FOG     WCI  32
WEST BEND      CLOUDY    41  36  81 CALM      29.89F
JUNEAU         MOCLDY    42  35  78 S8        29.89F
$$

LSZ147-162-240900-
LAKE SUPERIOR

STATION/POSITION TIME  TEMP    WIND        PRES    WAVE
                       AIR SEA DIR/SP/G            HT/PER
                 (UTC) (F)     (DEG/KT/KT) (MB)    (FT/S)
DEVILS ISLAND    0700   33     130/  3/  4 1014.2F
PORT WING        0740   33     250/  1/  1 1013.9S
SAXON HARBOR     0730   33      CALM  /  2 1012.5F
$$

LMZ867-665-643>646-240900-
LAKE MICHIGAN

STATION/POSITION TIME  TEMP    WIND        PRES    WAVE
                       AIR SEA DIR/SP/G            HT/PER
                 (UTC) (F)     (DEG/KT/KT) (MB)    (FT/S)
CHAMBERS ISLAND  0740   36     130/  4/  6 1012.9F
NORTHPORT PIER   0740   35     150/  2/  4 1013.9F
SISTER BAY       0636   37        CALM       N/A
KEWAUNEE LAKESHO 0730   38      CALM  /  2 1013.1F
SHEBOYGAN LAKESH 0700   39     140/ 16/ 16 1012.9F
PORT WASHINGTON  0730   39     180/  2/  2 1013.9F
MILWAUKEE LAKESH 0730   46     270/  3/  5   N/A
KENOSHA   LAKESH 0700   49     200/ 13/ 20 1013.2
$$

TC  - TEMPERATURE IN CELSIUS
VSB - VISIBILITY IN STATUTE MILES
WCI - WIND CHILL INDEX
HX  - HEAT INDEX





USA.gov is the U.S. government's official web portal to all federal, state and local government web resources and services.